| time (UTC) | temp C | wind direction | speed KPH | gust KPH | rain 1hr cm | rain 24hr cm | rain mn cm | humidity % | barometer mb |
| 20260505093037 | 15 | 271 | 1.6 | 6.4 | 0.00 | 0.00 | 0.00 | 73 | 1011.2 |
| 20260505091538 | 16 | 297 | 0.0 | 6.4 | 0.00 | 0.00 | 0.00 | 72 | 1011.0 |
| 20260505090031 | 16 | 245 | 0.0 | 4.8 | 0.00 | 0.00 | 0.00 | 72 | 1011.0 |
| 20260505084533 | 16 | 0 | 0.0 | 4.8 | 0.00 | 0.00 | 0.00 | 72 | 1010.9 |
| 20260505083033 | 16 | 247 | 0.0 | 3.2 | 0.00 | 0.00 | 0.00 | 72 | 1010.8 |
| 20260505081537 | 16 | 0 | 0.0 | 6.4 | 0.00 | 0.00 | 0.00 | 73 | 1011.1 |
| 20260505080032 | 16 | 269 | 0.0 | 4.8 | 0.00 | 0.00 | 0.00 | 74 | 1011.0 |
| 20260505074530 | 16 | 165 | 0.0 | 6.4 | 0.00 | 0.00 | 0.00 | 74 | 1011.1 |
| 20260505073031 | 16 | 301 | 1.6 | 11.3 | 0.00 | 0.00 | 0.00 | 74 | 1010.9 |
| 20260505071529 | 16 | 263 | 0.0 | 4.8 | 0.00 | 0.00 | 0.00 | 75 | 1010.9 |
| 20260505070038 | 16 | 266 | 0.0 | 6.4 | 0.00 | 0.00 | 0.00 | 74 | 1010.8 |
| 20260505064532 | 16 | 265 | 1.6 | 4.8 | 0.00 | 0.00 | 0.00 | 74 | 1010.8 |
| 20260505063029 | 16 | 0 | 0.0 | 4.8 | 0.00 | 0.00 | 0.00 | 74 | 1010.9 |
| 20260505061545 | 16 | 200 | 1.6 | 4.8 | 0.00 | 0.00 | 0.00 | 74 | 1010.9 |
| 20260505060030 | 16 | 272 | 1.6 | 8.0 | 0.00 | 0.00 | 0.00 | 74 | 1010.9 |
| 20260505054532 | 16 | 251 | 1.6 | 6.4 | 0.00 | 0.00 | 0.00 | 74 | 1010.9 |
| 20260505053039 | 16 | 148 | 1.6 | 6.4 | 0.00 | 0.00 | 0.00 | 74 | 1010.9 |
| 20260505051553 | 15 | 0 | 0.0 | 8.0 | 0.00 | 0.00 | 0.00 | 75 | 1010.8 |
| 20260505041533 | 16 | 0 | 1.6 | 4.8 | 0.00 | 0.00 | 0.00 | 72 | 1010.8 |
| 20260505040033 | 16 | 215 | 0.0 | 3.2 | 0.00 | 0.00 | 0.00 | 71 | 1010.9 |
| 20260505034532 | 16 | 0 | 1.6 | 6.4 | 0.00 | 0.00 | 0.00 | 70 | 1010.9 |
| 20260505033032 | 16 | 220 | 0.0 | 8.0 | 0.00 | 0.00 | 0.00 | 69 | 1010.8 |
| 20260505031531 | 16 | 240 | 1.6 | 6.4 | 0.00 | 0.00 | 0.00 | 69 | 1010.6 |
| 20260505030032 | 16 | 200 | 1.6 | 8.0 | 0.00 | 0.00 | 0.00 | 67 | 1010.6 |
| 20260505024532 | 16 | 201 | 3.2 | 6.4 | 0.00 | 0.00 | 0.00 | 67 | 1010.7 |
| 20260505023033 | 17 | 201 | 1.6 | 6.4 | 0.00 | 0.00 | 0.00 | 65 | 1010.8 |
| 20260505021533 | 16 | 186 | 3.2 | 8.0 | 0.00 | 0.00 | 0.00 | 63 | 1010.8 |
| 20260505020030 | 16 | 164 | 3.2 | 6.4 | 0.00 | 0.00 | 0.00 | 62 | 1010.7 |
| 20260505014532 | 16 | 191 | 1.6 | 4.8 | 0.00 | 0.00 | 0.00 | 60 | 1010.7 |
| 20260505013031 | 16 | 197 | 1.6 | 4.8 | 0.00 | 0.00 | 0.00 | 59 | 1010.6 |
| 20260505011534 | 17 | 184 | 1.6 | 4.8 | 0.00 | 0.00 | 0.00 | 57 | 1010.6 |
| 20260505010035 | 17 | 203 | 1.6 | 3.2 | 0.00 | 0.00 | 0.00 | 55 | 1010.5 |
| 20260505004531 | 17 | 172 | 1.6 | 3.2 | 0.00 | 0.00 | 0.00 | 54 | 1010.4 |
| 20260505003029 | 18 | 193 | 1.6 | 3.2 | 0.00 | 0.00 | 0.00 | 53 | 1010.4 |
| 20260505001528 | 18 | 195 | 1.6 | 4.8 | 0.00 | 0.00 | 0.00 | 51 | 1010.4 |
| 20260505000038 | 19 | 192 | 1.6 | 4.8 | 0.00 | 0.00 | 0.00 | 50 | 1010.4 |
| 20260504234535 | 20 | 193 | 1.6 | 9.7 | 0.00 | 0.00 | 0.00 | 48 | 1010.4 |
| 20260504233031 | 21 | 244 | 1.6 | 11.3 | 0.00 | 0.00 | 0.00 | 46 | 1010.3 |
| 20260504231531 | 21 | 195 | 3.2 | 8.0 | 0.00 | 0.00 | 0.00 | 44 | 1010.2 |
| 20260504230029 | 22 | 248 | 4.8 | 9.7 | 0.00 | 0.00 | 0.00 | 40 | 1010.1 |
| 20260504224532 | 22 | 264 | 1.6 | 8.0 | 0.00 | 0.00 | 0.00 | 41 | 1010.1 |
| 20260504223032 | 22 | 207 | 4.8 | 12.9 | 0.00 | 0.00 | 0.00 | 39 | 1010.1 |
| 20260504221533 | 23 | 289 | 3.2 | 9.7 | 0.00 | 0.00 | 0.00 | 39 | 1010.0 |
| 20260504220030 | 23 | 207 | 3.2 | 11.3 | 0.00 | 0.00 | 0.00 | 39 | 1010.2 |
| 20260504214533 | 24 | 257 | 1.6 | 11.3 | 0.00 | 0.00 | 0.00 | 41 | 1010.2 |
| 20260504213028 | 23 | 210 | 3.2 | 11.3 | 0.00 | 0.00 | 0.00 | 39 | 1010.2 |
| 20260504211536 | 23 | 255 | 3.2 | 8.0 | 0.00 | 0.00 | 0.00 | 39 | 1010.3 |
| 20260504210040 | 23 | 252 | 3.2 | 17.7 | 0.00 | 0.00 | 0.00 | 39 | 1010.2 |
| 20260504204532 | 23 | 266 | 4.8 | 9.7 | 0.00 | 0.00 | 0.00 | 40 | 1010.3 |
| 20260504203049 | 23 | 256 | 3.2 | 11.3 | 0.00 | 0.00 | 0.00 | 40 | 1010.3 |
| 20260504201532 | 23 | 253 | 3.2 | 11.3 | 0.00 | 0.00 | 0.00 | 40 | 1010.7 |
| 20260504200033 | 23 | 261 | 4.8 | 14.5 | 0.00 | 0.00 | 0.00 | 37 | 1011.0 |
| 20260504194533 | 23 | 18 | 4.8 | 17.7 | 0.00 | 0.00 | 0.00 | 40 | 1011.2 |
| 20260504193031 | 23 | 289 | 4.8 | 11.3 | 0.00 | 0.00 | 0.00 | 39 | 1011.5 |
| 20260504191530 | 22 | 283 | 4.8 | 14.5 | 0.00 | 0.00 | 0.00 | 39 | 1011.6 |
| 20260504190030 | 23 | 68 | 1.6 | 11.3 | 0.00 | 0.00 | 0.00 | 40 | 1011.6 |
| 20260504184534 | 22 | 165 | 6.4 | 11.3 | 0.00 | 0.00 | 0.00 | 39 | 1011.7 |
| 20260504183034 | 22 | 298 | 3.2 | 11.3 | 0.00 | 0.00 | 0.00 | 40 | 1011.9 |
| 20260504181530 | 22 | 309 | 4.8 | 14.5 | 0.00 | 0.00 | 0.00 | 39 | 1012.2 |
| 20260504180032 | 22 | 267 | 3.2 | 12.9 | 0.00 | 0.00 | 0.00 | 41 | 1012.3 |
| 20260504174532 | 22 | 272 | 3.2 | 11.3 | 0.00 | 0.00 | 0.00 | 40 | 1012.4 |
| 20260504173035 | 22 | 259 | 3.2 | 8.0 | 0.00 | 0.00 | 0.00 | 38 | 1012.6 |
| 20260504171531 | 21 | 252 | 3.2 | 12.9 | 0.00 | 0.00 | 0.00 | 43 | 1013.0 |